Skip Page Navigation
NASA JPL Caltech
NASA Logo - Jet Propulsion Laboratory + View the NASA Portal
+ Near-Earth Object (NEO) Program
Search JPL
JPL Home Earth Solar System Stars & Galaxies Technology
JPL Solar System Dynamics
BODIES ORBITS EPHEMERIDES TOOLS PHYSICAL DATA DISCOVERY FAQ SITE MAP
JPL Small-Body Database Browser
Search: [ help ]  
3708 (1974 FV1)
Classification: Jupiter Trojan          SPK-ID: 2003708
Ephemeris | Orbit Diagram | Orbital Elements | Physical Parameters | Discovery Circumstances ]

[ show orbit diagram ]
Orbital Elements at Epoch 2457000.5 (2014-Dec-09.0) TDB
Reference: JPL 10 (heliocentric ecliptic J2000)
 Element Value Uncertainty (1-sigma)   Units 
e .1591001920708768 9.3423e-08  
a 5.215445629011957 1.1226e-07 AU
q 4.38566722770094 4.8892e-07 AU
i 13.37306310999871 8.3116e-06 deg
node 291.1718102371078 4.5789e-05 deg
peri 57.87097057403403 5.5697e-05 deg
M 76.89980728097997 2.9489e-05 deg
tp 2456071.194920684832
(2012-May-23.69492068)
0.00035071 JED
period 4350.4638097605
11.91
0.00014047
3.846e-07
d
yr
n .08274979766348603 2.6718e-09 deg/d
Q 6.045224030322974 1.3012e-07 AU
  Orbit Determination Parameters
   # obs. used (total)      859  
   data-arc span      30653 days (83.92 yr)  
   first obs. used      1930-11-26  
   last obs. used      2014-10-29  
   planetary ephem.      DE431  
   SB-pert. ephem.      SB431-BIG16  
   condition code      0  
   fit RMS      .57137  
   data source      ORB  
   producer      Otto Matic  
   solution date      2014-Nov-10 12:53:59  

Additional Information
 Earth MOID = 3.40313 AU 
 T_jup = 2.921 
[ show covariance matrix ]

Ephemeris | Orbit Diagram | Orbital Elements | Physical Parameters | Discovery Circumstances ]

Physical Parameter Table
Parameter Symbol Value Units Sigma Reference Notes
absolute magnitude H 9.1 mag n/a MPO272654  
diameter diameter 79.59 km 4.5 IRAS-A-FPA-3-RDR-IMPS-V6.0 IRAS observations used: 5
rotation period rot_per 6.553 h n/a Asteroid Lightcurve DataBase (Rev. 2014-Mar-01) Published Reference List:
[Mottola, S.; Di Martino, M.; Erikson, A.; Gonano-Beurer, M.; et al. (2011) Astron. J. 141, A170.]
geometric albedo albedo 0.0531   0.007 IRAS-A-FPA-3-RDR-IMPS-V6.0 IRAS observations used: 5

3708 (1974 FV1)          Discovered 1974-Mar-21 by at Cerro El Roble
Reference: DISCOVERY.DBLast Updated: 2003-08-29

Alternate Designations
 1974 FV1 = 1930 XF = 1953 SG = 1965 TA = 1974 HN3 = 1975 NQ 
Ephemeris | Orbit Diagram | Orbital Elements | Physical Parameters | Discovery Circumstances ]
ABOUT SSD CREDITS/AWARDS PRIVACY/COPYRIGHT GLOSSARY LINKS
FirstGov 2014-Nov-24 05:23 UT
(server date/time)  
NASA Home Page
Site Manager:   Donald K. Yeomans
Webmaster  Alan B. Chamberlin